TimeCST,TemperatureF,Dew PointF,Humidity,Sea Level PressureIn,VisibilityMPH,Wind Direction,Wind SpeedMPH,Gust SpeedMPH,PrecipitationIn,Events,Conditions,WindDirDegrees,DateUTC
12:56 AM,34.0,34.0,100,30.06,0.5,NNW,5.8,-,N/A,Fog,Fog,330,2013-01-01 06:56:00
1:56 AM,34.0,34.0,100,30.09,0.5,NNW,6.9,-,N/A,Fog,Fog,330,2013-01-01 07:56:00
2:13 AM,33.8,33.8,100,30.07,0.2,North,6.9,-,N/A,Fog,Fog,350,2013-01-01 08:13:00
3:04 AM,33.8,33.8,100,30.08,0.5,North,9.2,-,N/A,Fog,Fog,350,2013-01-01 09:04:00
3:56 AM,34.0,34.0,100,30.09,0.5,North,8.1,-,N/A,Fog,Fog,10,2013-01-01 09:56:00
4:34 AM,33.8,33.8,100,30.09,0.2,North,5.8,-,N/A,Fog,Fog,10,2013-01-01 10:34:00
4:56 AM,34.0,34.0,100,30.09,0.2,NNE,9.2,-,N/A,Fog,Fog,30,2013-01-01 10:56:00
6:56 AM,34.0,34.0,100,30.10,0.5,North,9.2,-,N/A,Fog,Fog,360,2013-01-01 12:56:00
7:18 AM,33.8,33.8,100,30.11,0.2,North,9.2,-,N/A,Fog,Fog,360,2013-01-01 13:18:00
7:25 AM,33.8,33.8,100,30.12,0.2,North,10.4,-,N/A,Fog,Fog,350,2013-01-01 13:25:00
7:37 AM,33.8,33.8,100,30.13,0.2,North,9.2,-,N/A,Fog,Fog,360,2013-01-01 13:37:00
7:56 AM,34.9,34.9,100,30.15,0.2,North,8.1,-,N/A,Fog,Fog,360,2013-01-01 13:56:00
8:06 AM,35.6,35.6,100,30.14,0.8,North,8.1,-,N/A,,Overcast,360,2013-01-01 14:06:00
8:12 AM,35.6,35.6,100,30.14,1.2,North,9.2,-,N/A,,Overcast,360,2013-01-01 14:12:00
8:27 AM,35.6,35.6,100,30.12,0.8,North,10.4,-,N/A,,Overcast,10,2013-01-01 14:27:00
8:35 AM,35.6,35.6,100,30.13,1.2,North,11.5,-,N/A,,Overcast,10,2013-01-01 14:35:00
8:43 AM,35.6,35.6,100,30.12,2.0,NNE,6.9,-,N/A,,Overcast,20,2013-01-01 14:43:00
8:56 AM,34.9,34.9,100,30.15,5.0,NNE,8.1,-,N/A,,Overcast,30,2013-01-01 14:56:00
9:56 AM,36.0,36.0,100,30.20,8.0,North,9.2,-,N/A,,Overcast,360,2013-01-01 15:56:00
10:25 AM,35.6,35.6,100,30.22,4.0,North,9.2,-,N/A,,Overcast,360,2013-01-01 16:25:00
10:35 AM,35.6,35.6,100,30.21,1.8,North,10.4,-,N/A,,Overcast,10,2013-01-01 16:35:00
10:40 AM,35.6,35.6,100,30.22,1.0,North,9.2,-,N/A,,Overcast,10,2013-01-01 16:40:00
10:48 AM,35.6,35.6,100,30.21,1.5,NNE,8.1,-,N/A,,Overcast,30,2013-01-01 16:48:00
10:56 AM,34.9,34.9,100,30.21,2.0,NNE,8.1,-,N/A,,Overcast,20,2013-01-01 16:56:00
11:03 AM,35.6,35.6,100,30.20,1.5,NNE,6.9,-,0.00,Rain,Light Rain,20,2013-01-01 17:03:00
11:37 AM,35.6,35.6,100,30.16,3.0,NE,10.4,-,0.00,Rain,Light Rain,40,2013-01-01 17:37:00
11:56 AM,36.0,36.0,100,30.17,10.0,NE,10.4,82.9,0.00,,Overcast,50,2013-01-01 17:56:00
1:56 PM,36.0,34.9,96,30.14,10.0,NNE,10.4,-,N/A,,Overcast,20,2013-01-01 19:56:00
2:56 PM,36.0,34.0,93,30.17,10.0,North,-9999.0,-,N/A,,Overcast,0,2013-01-01 20:56:00
3:20 PM,35.6,35.6,100,30.16,10.0,NNE,9.2,-,N/A,,Overcast,20,2013-01-01 21:20:00
3:48 PM,35.6,35.6,100,30.17,10.0,North,-9999.0,-,N/A,,Overcast,0,2013-01-01 21:48:00
3:56 PM,36.0,34.9,96,30.17,10.0,NNE,11.5,-,N/A,,Overcast,30,2013-01-01 21:56:00
4:40 PM,35.6,33.8,93,30.18,10.0,NNE,10.4,26.5,N/A,,Overcast,20,2013-01-01 22:40:00
4:56 PM,36.0,34.0,93,30.19,10.0,NNE,12.7,41.4,N/A,,Overcast,20,2013-01-01 22:56:00
5:56 PM,34.9,34.0,97,30.21,10.0,North,9.2,-,N/A,,Overcast,10,2013-01-01 23:56:00
6:06 PM,35.6,33.8,93,30.21,10.0,North,11.5,-,N/A,,Overcast,360,2013-01-02 00:06:00
6:56 PM,34.9,32.9,92,30.23,10.0,North,8.1,-,N/A,,Overcast,360,2013-01-02 00:56:00
7:32 PM,35.6,33.8,93,30.23,10.0,North,6.9,-,N/A,,Overcast,360,2013-01-02 01:32:00
7:56 PM,34.0,32.9,96,30.23,8.0,North,6.9,-,N/A,,Overcast,360,2013-01-02 01:56:00
8:56 PM,34.0,31.1,89,30.24,10.0,North,10.4,-,N/A,,Overcast,350,2013-01-02 02:56:00
9:56 PM,32.9,30.0,89,30.26,10.0,North,10.4,-,N/A,,Overcast,350,2013-01-02 03:56:00
10:56 PM,32.0,29.1,89,30.25,10.0,North,10.4,-,N/A,,Overcast,360,2013-01-02 04:56:00
11:56 PM,31.1,28.0,88,30.27,10.0,North,9.2,-,N/A,,Overcast,360,2013-01-02 05:56:00